Weather History for Manteo, NC

Change the Weather History Date:

Thursday, May 10, 2012

  Actual Average Record
Temperature  
Mean Temperature 66 °F -  
Max Temperature 71 °F 71 °F 87 °F (1970)
Min Temperature 60 °F 58 °F 42 °F (1976)
Growing Degree Days 16 (Base 50)    
Moisture  
Dew Point 52 °F    
Average Humidity 63    
Maximum Humidity 88    
Minimum Humidity 46    
Precipitation  
Precipitation 0.00 in - - ()
Sea Level Pressure  
Sea Level Pressure 29.75 in    
Wind  
Wind Speed 7 mph (North)    
Max Wind Speed 22 mph    
Max Gust Speed 29 mph    
Visibility 10 miles    
Events Rain    
Averages and records for this station are not official NWS values.
T = Trace of Precipitation, MM = Missing Value Source: NWS Daily Summary

Daily Weather History Graph

Daily Weather History Graph

Search for Another Location

Airport:

Trip Planner

Search our weather history database for the weather conditions in past years. The results will help you decide how hot, cold, wet, or windy it might be!

Date:

Astronomy

May. 10, 2012 Rise Set
Actual Time 6:00 AM EDT 7:57 PM EDT
Civil Twilight 5:32 AM EDT 8:26 PM EDT
Nautical Twilight 4:58 AM EDT 9:00 PM EDT
Astronomical Twilight 4:22 AM EDT 9:37 PM EDT
Moon No Moon Rise 10:22 AM EDT (5/10)
Length of Visible Light 14h 53m
Length of Day
13h 56m
Waning Gibbous, 73% of the Moon is Illuminated
May 10
Waning Gibbous
May 12
Last Quarter
May 20
New
May 28
First Quarter
Jun 4
Full

Hourly Weather History & Observations

Time (EDT) Temp. Dew Point Humidity Pressure Visibility Wind Dir Wind Speed Gust Speed Precip Events Conditions
12:15 AM 68.0 °F 62.6 °F 83% 29.60 in 10.0 mi Calm Calm - N/A   Mostly Cloudy
12:35 AM 68.0 °F 62.6 °F 83% 29.60 in 7.0 mi Calm Calm - N/A Rain Light Rain
12:55 AM 68.0 °F 62.6 °F 83% 29.59 in 5.0 mi WNW 4.6 mph - N/A Rain Rain
1:15 AM 68.0 °F 62.6 °F 83% 29.59 in 3.0 mi NNW 3.5 mph - N/A Rain Heavy Rain
1:35 AM 66.2 °F 62.6 °F 88% 29.59 in 10.0 mi NNW 5.8 mph - N/A   Overcast
1:55 AM 64.4 °F 60.8 °F 88% 29.60 in 4.0 mi North 21.9 mph 28.8 mph N/A Rain Light Rain
2:15 AM 62.6 °F 59.0 °F 88% 29.60 in 5.0 mi North 13.8 mph 20.7 mph N/A Rain Light Rain
2:35 AM 62.6 °F 57.2 °F 82% 29.61 in 7.0 mi NNW 12.7 mph 20.7 mph N/A   Overcast
2:55 AM 62.6 °F 59.0 °F 88% 29.61 in 5.0 mi NNW 8.1 mph 16.1 mph N/A   Drizzle
3:15 AM 62.6 °F 59.0 °F 88% 29.61 in 7.0 mi NNW 10.4 mph 18.4 mph N/A   Light Drizzle
3:35 AM 62.6 °F 59.0 °F 88% 29.61 in 10.0 mi NNW 9.2 mph - N/A   Overcast
3:55 AM 62.6 °F 57.2 °F 82% 29.62 in 10.0 mi NNW 12.7 mph 20.7 mph N/A   Overcast
4:15 AM 62.6 °F 57.2 °F 82% 29.62 in 10.0 mi North 10.4 mph 16.1 mph N/A   Mostly Cloudy
4:35 AM 62.6 °F 55.4 °F 77% 29.62 in 10.0 mi NNW 10.4 mph 16.1 mph N/A   Mostly Cloudy
4:55 AM 62.6 °F 55.4 °F 77% 29.63 in 10.0 mi NW 8.1 mph 17.3 mph N/A   Mostly Cloudy
5:15 AM 60.8 °F 53.6 °F 77% 29.64 in 10.0 mi NNW 10.4 mph 18.4 mph N/A   Mostly Cloudy
5:35 AM 60.8 °F 53.6 °F 77% 29.64 in 10.0 mi NNW 10.4 mph - N/A   Mostly Cloudy
5:55 AM 60.8 °F 53.6 °F 77% 29.65 in 10.0 mi NNW 10.4 mph 16.1 mph N/A   Scattered Clouds
6:15 AM 60.8 °F 53.6 °F 77% 29.66 in 10.0 mi NNW 11.5 mph 17.3 mph N/A   Clear
6:35 AM 60.8 °F 53.6 °F 77% 29.67 in 10.0 mi NNW 9.2 mph 17.3 mph N/A   Clear
6:55 AM 60.8 °F 53.6 °F 77% 29.68 in 10.0 mi NNW 9.2 mph 17.3 mph N/A   Clear
7:15 AM 60.8 °F 53.6 °F 77% 29.69 in 10.0 mi NNW 5.8 mph - N/A   Scattered Clouds
7:35 AM 62.6 °F 53.6 °F 72% 29.69 in 10.0 mi NW 8.1 mph - N/A   Scattered Clouds
7:55 AM 64.4 °F 53.6 °F 68% 29.70 in 10.0 mi NNW 8.1 mph - N/A   Clear
8:15 AM 64.4 °F 53.6 °F 68% 29.70 in 10.0 mi NW 9.2 mph - N/A   Clear
8:35 AM 64.4 °F 55.4 °F 73% 29.72 in 10.0 mi NW 10.4 mph - N/A   Clear
8:55 AM 64.4 °F 53.6 °F 68% 29.72 in 10.0 mi NW 10.4 mph - N/A   Clear
9:15 AM 64.4 °F 53.6 °F 68% 29.73 in 10.0 mi NW 12.7 mph 18.4 mph N/A   Clear
9:35 AM 66.2 °F 51.8 °F 60% 29.73 in 10.0 mi NNW 12.7 mph 18.4 mph N/A   Clear
9:55 AM 68.0 °F 50.0 °F 52% 29.73 in 10.0 mi NNW 12.7 mph 17.3 mph N/A   Clear
10:15 AM 68.0 °F 50.0 °F 52% 29.74 in 10.0 mi NNW 13.8 mph 19.6 mph N/A   Clear
10:35 AM 68.0 °F 50.0 °F 52% 29.75 in 10.0 mi NNW 11.5 mph 19.6 mph N/A   Clear
10:55 AM 68.0 °F 50.0 °F 52% 29.76 in 10.0 mi NNW 11.5 mph 16.1 mph N/A   Clear
11:15 AM 69.8 °F 50.0 °F 49% 29.76 in 10.0 mi NW 8.1 mph 16.1 mph N/A   Clear
11:35 AM 69.8 °F 50.0 °F 49% 29.77 in 10.0 mi NW 9.2 mph 18.4 mph N/A   Clear
11:55 AM 69.8 °F 50.0 °F 49% 29.78 in 10.0 mi NW 8.1 mph - N/A   Clear
12:15 PM 69.8 °F 50.0 °F 49% 29.77 in 10.0 mi West 8.1 mph - N/A   Clear
12:35 PM 69.8 °F 50.0 °F 49% 29.77 in 10.0 mi WNW 8.1 mph - N/A   Clear
12:55 PM 69.8 °F 50.0 °F 49% 29.77 in 10.0 mi NW 9.2 mph - N/A   Clear
1:15 PM 71.6 °F 50.0 °F 46% 29.77 in 10.0 mi NW 6.9 mph 17.3 mph N/A   Clear
1:35 PM 68.0 °F 48.2 °F 49% 29.78 in 10.0 mi NNE 9.2 mph - N/A   Mostly Cloudy
1:55 PM 69.8 °F 50.0 °F 49% 29.78 in 10.0 mi North 5.8 mph - N/A   Mostly Cloudy
2:15 PM 69.8 °F 50.0 °F 49% 29.78 in 10.0 mi North 8.1 mph - N/A   Scattered Clouds
2:35 PM 69.8 °F 50.0 °F 49% 29.78 in 10.0 mi NNE 8.1 mph - N/A   Clear
2:55 PM 69.8 °F 50.0 °F 49% 29.78 in 10.0 mi North 8.1 mph - N/A   Clear
3:15 PM 69.8 °F 50.0 °F 49% 29.78 in 10.0 mi NE 10.4 mph - N/A   Clear
3:35 PM 69.8 °F 50.0 °F 49% 29.78 in 10.0 mi NNE 6.9 mph - N/A   Clear
3:55 PM 69.8 °F 50.0 °F 49% 29.78 in 10.0 mi NE 8.1 mph - N/A   Clear
4:15 PM 69.8 °F 50.0 °F 49% 29.79 in 10.0 mi NNE 6.9 mph - N/A   Clear
4:35 PM 69.8 °F 50.0 °F 49% 29.79 in 10.0 mi NE 8.1 mph - N/A   Clear
4:55 PM 69.8 °F 50.0 °F 49% 29.80 in 10.0 mi NE 9.2 mph 16.1 mph N/A   Clear
5:15 PM 68.0 °F 50.0 °F 52% 29.81 in 10.0 mi NE 6.9 mph - N/A   Clear
5:35 PM 68.0 °F 46.4 °F 46% 29.81 in 10.0 mi NE 9.2 mph - N/A   Clear
5:55 PM 68.0 °F 46.4 °F 46% 29.82 in 10.0 mi NE 9.2 mph - N/A   Clear
6:15 PM 68.0 °F 48.2 °F 49% 29.83 in 10.0 mi ENE 9.2 mph - N/A   Clear
6:35 PM 68.0 °F 46.4 °F 46% 29.83 in 10.0 mi ENE 9.2 mph - N/A   Clear
6:55 PM 66.2 °F 48.2 °F 52% 29.83 in 10.0 mi NNE 10.4 mph - N/A   Clear
7:15 PM 66.2 °F 46.4 °F 49% 29.85 in 10.0 mi ENE 3.5 mph - N/A   Scattered Clouds
7:35 PM 64.4 °F 48.2 °F 56% 29.86 in 10.0 mi ESE 8.1 mph - N/A   Mostly Cloudy
7:55 PM 62.6 °F 50.0 °F 63% 29.88 in 10.0 mi SSE 5.8 mph - N/A   Clear
8:15 PM 62.6 °F 50.0 °F 63% 29.88 in 10.0 mi SSE 4.6 mph - N/A   Scattered Clouds
8:35 PM 62.6 °F 50.0 °F 63% 29.89 in 10.0 mi Calm Calm - N/A   Scattered Clouds
8:55 PM 60.8 °F 50.0 °F 68% 29.91 in 10.0 mi Calm Calm - N/A   Clear
9:15 PM 60.8 °F 51.8 °F 72% 29.91 in 10.0 mi East 3.5 mph - N/A   Mostly Cloudy
9:35 PM 62.6 °F 50.0 °F 63% 29.92 in 10.0 mi Calm Calm - N/A   Overcast
9:55 PM 62.6 °F 50.0 °F 63% 29.93 in 10.0 mi Calm Calm - N/A   Mostly Cloudy
10:15 PM 60.8 °F 48.2 °F 63% 29.94 in 10.0 mi East 3.5 mph - N/A   Scattered Clouds
10:35 PM 62.6 °F 50.0 °F 63% 29.94 in 10.0 mi ENE 6.9 mph - N/A   Mostly Cloudy
10:55 PM 62.6 °F 48.2 °F 59% 29.94 in 10.0 mi East 5.8 mph - N/A   Mostly Cloudy
11:15 PM 62.6 °F 46.4 °F 55% 29.95 in 10.0 mi East 4.6 mph - N/A   Mostly Cloudy
11:35 PM 62.6 °F 46.4 °F 55% 29.95 in 10.0 mi East 5.8 mph - N/A   Overcast
11:55 PM 62.6 °F 46.4 °F 55% 29.96 in 10.0 mi East 4.6 mph - N/A   Overcast